Caldwell, NJ

8:22 PM EDT on August 25, 2016 (GMT -0400)
Essex County

Weather History for KCDW - May, 2014

Change the Weather History Date:

Sunday, May 25, 2014

  Actual Average Record
Temperature  
Mean Temperature 66 °F -  
Max Temperature 81 °F 74 °F 92 °F (1964)
Min Temperature 50 °F 51 °F 29 °F (1956)
Growing Degree Days 16 (Base 50)    
Moisture  
Dew Point 50 °F    
Average Humidity 72    
Maximum Humidity 100    
Minimum Humidity 24    
Precipitation  
Precipitation 0.00 in - - ()
Sea Level Pressure  
Sea Level Pressure 30.08 in    
Wind  
Wind Speed 1 mph (NW)    
Max Wind Speed 13 mph    
Max Gust Speed 21 mph    
Visibility 6 miles    
Events Fog    
Averages and records for this station are not official NWS values.
T = Trace of Precipitation, MM = Missing Value Source: NWS Daily Summary

Daily Weather History Graph

Daily Weather History Graph

Search for Another Location

Airport or City:

Trip Planner

Search our weather history database for the weather conditions in past years. The results will help you decide how hot, cold, wet, or windy it might be!

Date:

Astronomy

May. 25, 2014 Rise Set
Actual Time 5:31 AM EDT 8:17 PM EDT
Civil Twilight 4:59 AM EDT 8:49 PM EDT
Nautical Twilight 4:19 AM EDT 9:29 PM EDT
Astronomical Twilight 3:32 AM EDT 10:16 PM EDT
Moon 3:36 AM EDT (5/25) 5:13 PM EDT (5/25)
Length of Visible Light 15h 49m
Length of Day
14h 45m
Waning Crescent, 10% of the Moon is Illuminated
May 25
Waning Crescent
May 28
New
Jun 5
First Quarter
Jun 13
Full
Jun 19
Last Quarter

Hourly Weather History & Observations

Time (EDT) Temp. Dew Point Humidity Pressure Visibility Wind Dir Wind Speed Gust Speed Precip Events Conditions
12:26 AM 55.4 °F 55.4 °F 100% 30.09 in 0.5 mi Calm Calm - N/A Fog Fog
12:53 AM 55.9 °F 55.9 °F 100% 30.11 in 0.8 mi Calm Calm - N/A   Mist
2:15 AM 53.6 °F 53.6 °F 100% 30.08 in 0.5 mi Calm Calm - N/A Fog Fog
2:53 AM 53.1 °F 53.1 °F 100% 30.09 in 0.5 mi Calm Calm - N/A Fog Fog
3:28 AM 53.6 °F 53.6 °F 100% 30.07 in 0.2 mi Calm Calm - N/A Fog Fog
3:53 AM 52.0 °F 52.0 °F 100% 30.09 in 0.2 mi Calm Calm - N/A Fog Fog
4:43 AM 51.8 °F 51.8 °F 100% 30.07 in 0.5 mi Calm Calm - N/A Fog Fog
5:01 AM 51.8 °F 51.8 °F 100% 30.07 in 0.5 mi Calm Calm - N/A Fog Fog
5:20 AM 50.0 °F 50.0 °F 100% 30.08 in 0.2 mi Calm Calm - N/A Fog Fog
5:36 AM 50.0 °F 50.0 °F 100% 30.08 in 1.5 mi Calm Calm - N/A   Mostly Cloudy
5:53 AM 50.0 °F 50.0 °F 100% 30.11 in 1.2 mi Calm Calm - N/A   Mostly Cloudy
6:25 AM 51.8 °F 51.8 °F 100% 30.10 in 2.0 mi Calm Calm - N/A   Mostly Cloudy
6:34 AM 51.8 °F 51.8 °F 100% 30.10 in 10.0 mi Calm Calm - N/A   Scattered Clouds
6:53 AM 52.0 °F 52.0 °F 100% 30.12 in 10.0 mi Calm Calm - N/A   Clear
7:53 AM 57.0 °F 54.0 °F 89% 30.12 in 10.0 mi Calm Calm - N/A   Clear
8:53 AM 62.1 °F 55.0 °F 78% 30.13 in 10.0 mi SW 3.5 mph - N/A   Clear
9:53 AM 68.0 °F 55.9 °F 65% 30.13 in 10.0 mi Variable 3.5 mph - N/A   Clear
11:53 AM 73.9 °F 48.0 °F 40% 30.11 in 10.0 mi NW 4.6 mph - N/A   Clear
12:53 PM 78.1 °F 51.1 °F 39% 30.10 in 10.0 mi NNE 8.1 mph - N/A   Clear
1:53 PM 77.0 °F 44.1 °F 31% 30.08 in 10.0 mi Variable 3.5 mph - N/A   Mostly Cloudy
2:53 PM 79.0 °F 43.0 °F 28% 30.06 in 10.0 mi North 12.7 mph 20.7 mph N/A   Mostly Cloudy
3:53 PM 80.1 °F 41.0 °F 25% 30.05 in 10.0 mi WNW 8.1 mph - N/A   Mostly Cloudy
4:53 PM 81.0 °F 41.0 °F 24% 30.04 in 10.0 mi Calm Calm - N/A   Partly Cloudy
5:53 PM 80.1 °F 41.0 °F 25% 30.03 in 10.0 mi WNW 3.5 mph - N/A   Mostly Cloudy
6:53 PM 79.0 °F 42.1 °F 27% 30.04 in 10.0 mi NW 6.9 mph - N/A   Clear
7:53 PM 75.9 °F 44.1 °F 32% 30.05 in 10.0 mi Calm Calm - N/A   Clear
8:53 PM 70.0 °F 48.9 °F 47% 30.07 in 10.0 mi Calm Calm - N/A   Clear
9:53 PM 64.0 °F 51.1 °F 63% 30.08 in 10.0 mi Calm Calm - N/A   Clear
10:53 PM 61.0 °F 51.1 °F 70% 30.09 in 10.0 mi Calm Calm - N/A   Clear
11:53 PM 60.1 °F 51.1 °F 72% 30.09 in 10.0 mi South 3.5 mph - N/A   Clear